Location: 5810 Zion Rd, Cleves, OH 45002, USA
(39.1922°N, 84.7113°W)
Time: 07:05:27
(UTC-05:00)

Vanguard 3 - Pass Details

Date: 20 December 2019
Orbit: 507 x 3263 km, 33.4° (Epoch: 24 January)

Event Time Altitude Azimuth Distance (km) Brightness Sun altitude
Rises 08:15:06 0° 263° (W) 3,163 9.7 2.6°
Reaches altitude 10° 08:17:07 10° 258° (WSW) 2,441 9.2 3.0°
Maximum altitude 08:22:43 54° 182° (S) 1,392 8.7 3.8°
Drops below altitude 10° 08:32:37 10° 109° (ESE) 4,206 12.6 5.4°
Sets 08:37:08 0° 106° (ESE) 5,676 13.0 6.1°
